Regional Weather Roundup
Issued by NWS Sioux Falls, SD

Home | Current Version | Previous Version | Graphics & Text | Print | Product List | Glossary Off
Versions: 1 2 3 4 5 6 7 8 9 10 11 12 13 14 15 16 17 18 19 20 21 22 23 24 25 26 27 28 29 30 31 32 33 34 35 36 37 38 39 40 41 42 43 44 45 46 47 48 49 50

000
ASUS43 KFSD 170402
RWRFSD

WEATHER ROUNDUP FOR SE SOUTH DAKOTA/SW MINNESOTA/NW IOWA
NATIONAL WEATHER SERVICE SIOUX FALLS SD
1100 PM CDT WED AUG 16 2017

NOTE: "FAIR" INDICATES FEW OR NO CLOUDS BELOW 12,000 FEET WITH NO
SIGNIFICANT WEATHER AND OR OBSTRUCTIONS TO VISIBILITY.


SDZ038>040-050-052>070-170500-
SOUTHEAST SOUTH DAKOTA

CITY           SKY/WX    TMP DP  RH WIND       PRES   REMARKS
BROOKINGS      RAIN      65  64  97 NW14      29.75R
CHAMBERLAIN    CLEAR     65  63  93 W9        29.90R
HURON          CLOUDY    66  64  93 NW14      29.83R
MADISON        LGT RAIN  64  64 100 NW14      29.78R
MITCHELL       LGT RAIN  67  66  97 NW12      29.83R
SIOUX FALLS    LGT RAIN  66  66 100 W7G17     29.76R FOG
WINNER         FAIR      62  56  80 NW7       29.94R
$$

MNZ071-072-080-081-089-090-097-098-170500-
SOUTHWEST MINNESOTA

CITY           SKY/WX    TMP DP  RH WIND       PRES   REMARKS
FAIRMONT       CLOUDY    67  65  93 W17G26    29.63S FOG
JACKSON        CLOUDY    66  63  88 W15G22    29.66S
LUVERNE        CLOUDY    63  61  94 W13       29.73S
MARSHALL       LGT RAIN  66  64  93 NW16G24   29.66S
MONTEVIDEO     HVY RAIN  64  64 100 N17G26    29.68F
PIPESTONE      LGT RAIN  64  63  94 NW10      29.73S
REDWOOD FALLS  LGT RAIN  66  64  93 NW23G31   29.53F
TRACY          LGT RAIN  65  65  99 NW14      29.66R
WINDOM         CLOUDY    64  63  94 W15G23    29.63S
WORTHINGTON    LGT RAIN  65  64  97 W13       29.70S
$$

IAZ001>003-012>014-020>022-031-032-NEZ013-014-SDZ071-170500-
NORTHWEST IOWA

CITY           SKY/WX    TMP DP  RH WIND       PRES   REMARKS
CHEROKEE       CLOUDY    65  65 100 W12G17    29.74F
DENISON        MOCLDY    66  64  94 W9G16     29.81S
ESTHERVILLE    CLOUDY    66  66 100 W13G18    29.66S
LE MARS        CLOUDY    66  64  94 W12       29.76S
ORANGE CITY    DRIZZLE   66  66 100 W10       29.75S
SHELDON        CLOUDY    66  64  94 W9G16     29.71S
SIOUX CITY     CLOUDY    67  64  90 W12       29.78S
SPENCER        CLOUDY    67  65  93 W13       29.70F
STORM LAKE     CLOUDY    66  64  94 W13       29.75S
$$

ABBREVIATIONS USED IN REMARKS
   TC - TEMPERATURE IN CELSIUS
  WCI - WIND CHILL INDEX
   HX - HEAT INDEX
  VSB - VISIBILITY





USA.gov is the U.S. government's official web portal to all federal, state and local government web resources and services.